{"data":{"norad_id":63845,"epoch":"2026-09-19T17:32:37.062528Z","epoch_age_seconds":216279,"freshness":"STALE","line1":"1 63845U 25093K   26262.73098452  .00013728  00000+0  50700-3 0  9996","line2":"2 63845  43.0002  62.4629 0001273 123.3663 236.7311 15.27610444 77420","mean_motion":15.27610444,"eccentricity":0.0001273,"inclination_deg":43.0002,"raan_deg":62.4629,"arg_perigee_deg":123.3663,"mean_anomaly_deg":236.7311,"bstar":0.000507,"rev_number":7742,"period_min":94.264870056099,"perigee_km":482.08451987993,"apogee_km":483.83135465096,"semimajor_km":6861.0949372654,"source":"CELESTRAK","updated_at":"2026-09-21T09:00:35.132965Z"}}